Regional Weather Roundup
Issued by NWS Little Rock, AR

Home | Current Version | Previous Version | Text Only | Print | Product List | Glossary Off
Versions: 1 2 3 4 5 6 7 8 9 10 11 12 13 14 15 16 17 18 19 20 21 22 23 24 25 26 27 28 29 30 31 32 33 34 35 36 37 38 39 40 41 42 43 44 45 46 47 48 49 50

000
ASUS44 KLZK 270605
RWRLZK

WEATHER ROUNDUP FOR ARKANSAS
NATIONAL WEATHER SERVICE LITTLE ROCK AR
100 AM CDT WED AUG 27 2014

NOTE: "FAIR" INDICATES FEW OR NO CLOUDS BELOW 12,000 FEET WITH NO
SIGNIFICANT WEATHER AND/OR OBSTRUCTIONS TO VISIBILITY.

ARZ001-003-010-029-270700-
NORTHWEST ARKANSAS

CITY           SKY/WX    TMP DP  RH WIND       PRES   REMARKS
FAYETTEVILLE   FAIR      72  69  90 CALM      30.11R
6HR MIN TEMP:  72; 6HR MAX TEMP:  90;

FORT SMITH     FAIR      79  72  79 NE5       30.06R
6HR MIN TEMP:  79; 6HR MAX TEMP:  93;

HARRISON       FAIR      75  72  90 SE3       30.11R
6HR MIN TEMP:  74; 6HR MAX TEMP:  87;

BENTONVILLE    FAIR      73  66  78 CALM      30.11S
6HR MIN TEMP:  73; 6HR MAX TEMP:  91;

ROGERS         FAIR      76  66  71 E5        30.12R
6HR MIN TEMP:  75; 6HR MAX TEMP:  91;

SILOAM SPGS    FAIR      73  64  73 SE3       30.10F
6HR MIN TEMP:  73; 6HR MAX TEMP:  90;

HIGHFILL       FAIR      71  65  81 N3        30.10S
6HR MIN TEMP:  71; 6HR MAX TEMP:  92;

$$

ARZ004-005-016-270700-
NORTH CENTRAL ARKANSAS

CITY           SKY/WX    TMP DP  RH WIND       PRES   REMARKS
BATESVILLE     FAIR      77  72  83 CALM      30.07S
6HR MIN TEMP:  77; 6HR MAX TEMP:  90;

FLIPPIN        FAIR      75  66  73 CALM      30.09S
6HR MIN TEMP:  75; 6HR MAX TEMP:  93;

MTN HOME       FAIR      77  69  76 S3        30.09S
6HR MIN TEMP:  76; 6HR MAX TEMP:  92;

$$

ARZ040-041-270700-
WEST CENTRAL ARKANSAS

CITY           SKY/WX    TMP DP  RH WIND       PRES   REMARKS
MENA           FAIR      72  70  94 CALM      30.09S
MOUNT IDA      FAIR      74  72  93 CALM      30.06R FOG
6HR MIN TEMP:  74; 6HR MAX TEMP:  84;

$$

ARZ009-017-025-026-028-270700-
NORTHEAST ARKANSAS

CITY           SKY/WX    TMP DP  RH WIND       PRES   REMARKS
CORNING          N/A     75  73  94 CALM      30.08R
JONESBORO      FAIR      75  70  84 NE3       30.06R
6HR MIN TEMP:  74; 6HR MAX TEMP:  89;

NEWPORT        FAIR      78  73  84 CALM      30.07R
6HR MIN TEMP:  76; 6HR MAX TEMP:  88;

WALNUT RIDGE   FAIR      73  70  88 N5        30.06S
6HR MIN TEMP:  73; 6HR MAX TEMP:  88;

BLYTHEVILLE    FAIR      75  73  93 CALM      30.07R
6HR MIN TEMP:  75; 6HR MAX TEMP:  82;

$$

ARZ022-023-033-042-044-270700-
CENTRAL ARKANSAS

CITY           SKY/WX    TMP DP  RH WIND       PRES   REMARKS
LITTLE ROCK    FAIR      81  73  76 CALM      30.05S HX  86
6HR MIN TEMP:  80; 6HR MAX TEMP:  88;

N LITTLE ROCK    N/A     78  74  87 CALM      30.05S
6HR MIN TEMP:  78; 6HR MAX TEMP:  88;

JACKSONVILLE   FAIR      77  74  91 CALM      30.05S
6HR MIN TEMP:  77; 6HR MAX TEMP:  89;

SEARCY         FAIR      76  75  96 CALM      30.07R
6HR MIN TEMP:  76; 6HR MAX TEMP:  90;

HOT SPRINGS    FAIR      78  74  87 CALM      30.07R
6HR MIN TEMP:  77; 6HR MAX TEMP:  88;

RUSSELLVILLE   FAIR      74  72  93 CALM      30.07R
6HR MIN TEMP:  74; 6HR MAX TEMP:  84;

CLINTON        FAIR      73  73 100 CALM      30.08S FOG
$$

ARZ036-270700-
EAST ARKANSAS

CITY           SKY/WX    TMP DP  RH WIND       PRES   REMARKS
WEST MEMPHIS   FAIR      75  73  93 CALM      30.05R
6HR MIN TEMP:  75; 6HR MAX TEMP:  89;

$$

ARZ050-053-066-070-073-270700-
SOUTHWEST ARKANSAS

CITY           SKY/WX    TMP DP  RH WIND       PRES   REMARKS
ARKADELPHIA    FAIR      74  74 100 CALM      30.05S FOG
6HR MIN TEMP:  75; 6HR MAX TEMP:  84; 6HR PCP: TRACE;

CAMDEN         FOG       72  68  88 CALM      30.04R VSB 3/4
TEXARKANA      FAIR      74  73  97 NE3       30.05R
6HR MIN TEMP:  74; 6HR MAX TEMP:  79;

EL DORADO      FAIR      73  72  96 CALM      30.04S
6HR MIN TEMP:  73; 6HR MAX TEMP:  86;

DE QUEEN       FAIR      72  71  97 CALM      30.03F FOG
6HR MIN TEMP:  72; 6HR MAX TEMP:  85;

$$

ARZ056-057-069-270700-
SOUTHEAST ARKANSAS

CITY           SKY/WX    TMP DP  RH WIND       PRES   REMARKS
PINE BLUFF     FAIR      74  72  93 CALM      30.05R
6HR MIN TEMP:  74; 6HR MAX TEMP:  83;

STUTTGART      FAIR      77  72  83 CALM      30.06S
6HR MIN TEMP:  77; 6HR MAX TEMP:  88;

MONTICELLO     FAIR      73  69  87 CALM      30.04S
6HR MIN TEMP:  72; 6HR MAX TEMP:  86;


$$





USA.gov is the U.S. government's official web portal to all federal, state and local government web resources and services.